Wind_Speed
23 23 23 24 23 22 22 22 23 22 23 24 24 23 24 25 26 25 24 24 24 23 22 22 21 21 21 21 20 20 19 19 19 19 19 18 18 18 17 17 18 18 18
25 25 25 24 24 24 23 23 24 24 25 25 25 25 24 24 25 26 26 25 26 25 24 23 23 23 23 22 22 21 21 21 20 20 20 20 20 20 19 19 19 19 19
26 26 25 25 25 24 24 24 25 25 26 25 25 25 25 25 25 26 26 26 26 26 26 25 25 24 24 23 23 23 22 21 21 20 20 20 20 21 21 21 21 21 20
27 27 26 26 25 25 26 26 26 26 26 26 26 26 27 26 26 27 27 27 27 27 27 26 25 24 24 24 24 24 24 23 22 21 21 21 21 21 22 22 22 22 22
28 28 27 27 27 27 27 28 28 28 28 28 27 27 27 26 26 27 27 27 27 27 27 26 26 25 25 25 25 24 24 24 23 23 23 23 23 23 23 23 23 22 22
29 30 29 28 28 28 28 29 29 28 29 29 28 28 27 27 27 26 27 27 27 28 28 27 27 27 26 26 26 26 26 26 25 25 24 24 24 24 24 23 23 23 22
30 30 30 30 30 30 30 30 30 30 30 30 30 29 28 29 28 28 28 28 28 28 28 28 27 27 27 27 27 27 27 27 27 26 25 25 24 24 24 24 23 23 23
31 31 31 31 32 31 30 30 31 32 31 31 31 30 30 30 29 28 27 27 27 28 28 28 27 28 28 28 27 28 27 27 27 26 25 24 24 24 23 23 22 23 22
31 31 31 31 31 31 31 31 32 33 32 32 31 31 31 30 29 29 28 27 27 27 28 28 29 28 29 28 28 28 27 27 25 25 25 25 24 24 23 23 22 22 22
30 31 31 31 32 32 31 32 32 33 33 33 32 32 31 30 30 30 29 29 28 28 28 28 28 28 28 28 28 28 28 27 26 26 26 26 26 25 24 23 23 23 23
31 31 30 31 31 32 32 32 32 32 33 33 32 32 32 32 31 31 30 30 30 29 28 29 28 29 29 29 28 28 28 27 27 27 26 26 26 26 25 25 24 24 24
30 30 31 31 31 31 31 31 31 32 33 33 32 32 32 33 32 32 32 31 30 29 28 28 29 29 29 29 27 27 26 26 26 26 25 25 25 26 26 26 26 25 25
31 31 32 32 31 31 32 32 31 31 31 31 30 31 32 32 32 31 31 30 30 29 29 29 29 29 29 28 27 27 26 26 26 26 25 25 25 25 26 26 26 26 26
31 31 30 31 31 32 32 32 32 31 30 30 30 30 30 31 31 30 30 30 30 30 30 30 29 29 28 28 28 28 27 27 27 27 26 26 25 25 25 25 25 25 25
30 30 30 30 30 30 30 30 30 30 29 29 30 30 30 30 30 30 30 30 30 30 29 29 29 29 29 29 30 30 29 28 27 27 27 26 25 25 24 25 25 24 24
29 30 29 30 30 30 29 29 29 29 28 28 29 29 29 29 29 30 30 30 30 29 29 29 29 29 29 29 29 29 28 28 29 28 27 26 25 25 26 25 25 25 26
29 29 29 29 30 29 29 29 29 29 29 29 29 28 28 28 28 29 29 29 29 29 29 29 30 30 28 28 28 28 29 28 28 27 26 26 26 26 26 26 26 25 25
29 29 29 28 28 28 28 28 28 28 29 29 28 28 27 27 28 28 28 28 28 29 29 28 28 29 29 28 28 28 28 28 28 27 26 25 26 26 26 26 26 26 25
28 27 26 26 26 27 27 27 26 26 26 27 27 27 27 27 27 27 28 27 27 27 27 27 27 28 28 28 27 27 27 27 27 27 26 26 26 26 26 26 26 25 25
24 24 24 24 25 25 24 25 25 26 25 25 26 26 26 26 26 26 26 27 27 26 26 26 27 26 27 27 27 27 27 26 26 26 26 25 25 25 25 25 26 26 26
22 22 22 22 22 22 22 23 24 25 25 25 24 24 24 24 24 25 25 25 26 25 25 26 26 26 26 26 26 27 27 26 26 25 25 25 24 25 25 25 26 26 25
20 20 20 21 21 21 21 21 21 22 22 22 22 22 23 23 24 24 24 24 25 25 24 25 25 25 25 26 25 25 26 26 26 26 26 25 25 25 26 26 26 25 25
19 19 20 20 20 20 19 19 20 20 19 20 21 21 22 22 23 23 23 23 23 24 24 25 25 25 25 25 25 25 25 25 25 26 26 25 25 25 25 25 25 25 24
17 17 17 17 17 17 17 18 17 17 18 19 19 20 21 21 21 22 22 22 22 23 23 23 24 24 25 25 25 24 24 25 25 25 25 25 25 24 23 23 23 23 23
16 16 17 16 15 15 15 15 15 16 17 17 18 19 18 18 19 19 19 20 20 20 21 21 22 23 24 24 25 25 25 24 24 24 23 23 22 22 22 22 22 22 22
14 14 15 15 14 14 14 14 15 16 16 17 18 17 16 17 16 16 16 16 16 17 18 18 19 21 21 22 22 23 24 24 24 24 23 23 22 22 22 22 22 22 21
Wind_Direction
284 284 284 283 282 282 282 281 280 280 279 276 275 274 271 270 269 267 267 267 268 269 269 269 270 268 268 267 262 259 259 258 255 254 252 252 252 251 251 252 253 253 254
283 283 285 284 283 283 283 282 280 281 282 280 277 275 273 272 270 267 266 267 267 269 268 268 269 270 269 268 265 260 260 258 256 256 253 253 254 253 252 252 253 254 255
284 283 283 283 283 282 283 282 282 282 282 283 281 278 275 272 271 268 268 267 267 268 268 268 268 269 268 267 265 263 260 259 258 258 255 255 255 255 254 255 254 254 255
284 283 281 281 282 283 283 284 284 284 284 284 283 281 279 273 269 270 269 268 267 266 266 266 265 267 267 267 266 265 261 261 259 258 257 256 256 257 258 256 255 255 255
284 282 281 281 281 282 283 284 284 283 282 282 281 280 278 274 271 270 269 269 268 266 264 263 263 266 266 266 265 264 262 261 259 259 257 257 257 258 260 257 255 255 255
282 282 281 279 279 280 282 284 284 284 282 281 281 281 280 276 272 270 270 269 268 267 264 262 262 263 264 263 263 263 263 262 261 260 257 257 258 258 259 257 254 254 256
281 281 280 278 277 279 281 283 283 283 282 282 281 281 279 277 274 271 269 269 267 266 266 263 263 264 264 263 262 262 262 262 261 260 259 258 258 258 259 258 255 254 255
281 278 279 278 277 278 280 282 281 281 281 281 279 278 277 275 273 271 270 270 267 265 264 264 263 265 265 263 262 263 262 263 260 259 258 257 258 258 257 255 254 254 256
281 278 278 279 279 280 280 281 281 279 279 280 279 278 277 274 272 270 270 270 268 265 265 264 265 265 265 263 262 262 262 261 259 258 257 258 258 256 255 253 253 255 258
282 281 280 280 280 280 280 281 281 280 279 279 278 276 275 274 272 271 270 269 267 264 264 266 267 266 265 264 263 262 260 259 257 256 256 258 257 256 257 254 254 257 259
282 281 281 281 280 280 281 281 282 281 280 280 278 275 273 273 271 270 269 267 266 265 264 264 265 266 266 265 264 262 260 258 255 257 257 257 257 256 256 256 257 257 259
283 282 281 281 281 282 282 282 283 282 280 279 278 276 274 272 270 269 268 266 265 265 265 265 265 266 267 265 264 261 259 259 258 258 259 259 258 257 258 257 258 259 260
283 282 282 282 283 283 283 283 284 283 282 280 279 277 274 272 270 269 267 265 264 263 266 267 266 266 267 265 261 259 258 258 258 258 260 260 259 258 258 258 258 260 262
283 283 284 284 283 283 283 284 284 283 282 280 279 277 275 272 271 269 266 264 263 263 265 266 266 265 264 262 260 259 258 257 257 259 260 260 259 260 259 258 259 261 263
286 285 285 286 284 283 283 283 284 283 281 280 278 277 275 273 272 269 266 266 266 265 265 265 265 264 263 261 261 260 258 257 257 259 260 259 258 259 258 258 258 260 264
287 286 285 286 284 283 283 283 283 282 281 280 278 276 275 273 271 270 268 266 265 265 264 263 264 263 261 260 259 258 256 256 258 260 260 257 256 257 257 259 261 263 263
290 288 288 289 287 284 283 284 285 284 282 280 279 278 276 274 271 269 267 266 265 264 263 261 261 260 260 259 257 257 258 257 256 257 257 256 255 255 256 259 261 263 263
291 291 292 289 288 286 284 284 284 285 284 281 279 278 276 274 272 270 267 266 265 263 262 261 260 258 258 257 256 256 255 255 254 255 256 257 256 254 255 257 259 261 261
293 294 293 290 289 288 287 285 286 287 286 282 280 279 277 275 273 270 269 267 266 264 262 260 259 259 258 256 253 254 255 254 254 254 255 256 256 254 253 255 258 259 260
294 294 294 293 291 289 287 285 286 288 288 286 283 280 279 277 274 271 269 267 266 264 261 259 259 258 259 258 254 254 253 254 253 253 253 254 256 253 253 256 258 259 260
299 298 298 296 293 291 288 289 289 290 289 288 286 284 281 279 276 273 270 266 264 262 259 259 258 257 257 258 257 255 253 252 252 252 252 252 255 256 256 257 258 260 260
304 301 301 299 298 297 294 293 293 292 291 289 286 284 281 279 276 274 270 267 264 261 259 259 258 257 256 257 257 255 253 252 251 252 252 253 254 257 259 258 257 258 258
309 303 300 301 300 299 299 298 297 296 294 292 289 285 283 280 277 274 272 268 264 261 259 258 257 257 256 257 256 254 252 252 251 252 253 254 255 257 258 256 255 256 257
313 310 309 304 304 304 303 304 303 302 299 295 292 290 287 282 277 276 273 269 265 263 260 258 256 256 255 255 254 254 254 253 252 251 251 253 253 253 255 255 255 257 258
318 315 313 313 309 304 303 304 306 307 303 298 296 295 293 289 284 278 275 270 265 263 259 258 256 254 253 252 251 251 252 252 251 251 250 251 251 252 254 255 256 257 259
320 316 314 314 315 312 310 308 310 310 307 304 301 298 295 295 291 285 277 272 267 262 259 258 256 256 254 252 249 249 249 249 249 248 249 249 250 251 253 255 256 256 256
Height
5863 5862 5862 5861 5860 5859 5859 5858 5858 5857 5857 5856 5855 5855 5854 5855 5856 5855 5856 5857 5857 5857 5858 5858 5859 5859 5860 5860 5861 5861 5862 5863 5863 5864 5865 5866 5867 5867 5868 5869 5870 5870 5871
5858 5857 5857 5856 5855 5854 5854 5853 5853 5853 5852 5851 5850 5849 5849 5849 5850 5850 5851 5851 5851 5852 5852 5853 5854 5854 5855 5855 5856 5857 5858 5858 5859 5860 5860 5861 5862 5863 5864 5865 5865 5866 5867
5852 5851 5851 5850 5850 5849 5848 5848 5847 5847 5846 5845 5844 5844 5843 5844 5844 5844 5845 5845 5846 5846 5847 5848 5848 5849 5849 5850 5851 5852 5853 5854 5854 5855 5856 5857 5857 5858 5859 5860 5861 5862 5863
5846 5845 5845 5844 5844 5843 5843 5842 5842 5841 5840 5839 5839 5838 5837 5837 5837 5838 5839 5839 5840 5841 5841 5842 5843 5844 5844 5845 5846 5847 5848 5849 5849 5850 5851 5852 5853 5853 5854 5855 5856 5857 5858
5840 5839 5839 5838 5838 5837 5837 5836 5835 5835 5834 5833 5832 5832 5831 5831 5832 5832 5833 5833 5833 5834 5835 5836 5837 5838 5839 5839 5840 5841 5842 5843 5844 5845 5845 5846 5847 5848 5849 5850 5851 5852 5853
5834 5833 5833 5832 5831 5831 5830 5829 5828 5827 5827 5826 5825 5825 5825 5825 5825 5826 5826 5826 5827 5827 5828 5829 5830 5831 5832 5833 5834 5835 5836 5837 5838 5839 5840 5841 5841 5842 5843 5844 5845 5846 5847
5828 5827 5826 5825 5824 5824 5823 5822 5821 5820 5820 5819 5818 5818 5818 5818 5818 5819 5819 5820 5820 5821 5822 5822 5822 5824 5826 5827 5827 5828 5830 5831 5832 5832 5833 5834 5835 5836 5837 5838 5839 5840 5841
5821 5820 5819 5818 5817 5816 5815 5815 5814 5813 5812 5811 5811 5810 5811 5812 5811 5811 5812 5813 5813 5814 5815 5816 5816 5818 5819 5820 5821 5822 5823 5824 5825 5826 5827 5828 5829 5830 5831 5832 5833 5834 5835
5814 5812 5811 5810 5809 5808 5808 5807 5806 5805 5805 5804 5803 5803 5803 5803 5804 5805 5805 5806 5806 5807 5808 5809 5810 5810 5812 5813 5813 5814 5816 5817 5818 5820 5821 5822 5823 5824 5825 5826 5827 5829 5830
5807 5805 5804 5803 5802 5801 5800 5799 5798 5797 5796 5796 5795 5794 5795 5795 5796 5797 5798 5798 5799 5800 5801 5802 5802 5803 5804 5805 5806 5808 5809 5810 5811 5813 5814 5815 5816 5817 5819 5820 5821 5822 5823
5800 5798 5797 5796 5795 5794 5792 5791 5790 5789 5788 5787 5787 5787 5787 5787 5787 5788 5790 5791 5791 5793 5794 5795 5795 5796 5797 5798 5799 5800 5801 5803 5805 5806 5807 5809 5810 5811 5812 5813 5814 5816 5816
5792 5791 5790 5789 5787 5786 5785 5783 5782 5781 5780 5779 5779 5778 5778 5779 5779 5780 5781 5783 5783 5785 5786 5787 5788 5788 5789 5790 5792 5793 5794 5796 5797 5799 5800 5801 5802 5803 5805 5806 5807 5809 5809
5785 5783 5782 5781 5779 5778 5777 5775 5774 5773 5772 5771 5770 5770 5770 5770 5771 5772 5773 5774 5775 5777 5778 5779 5779 5781 5781 5783 5784 5786 5787 5789 5790 5792 5793 5794 5795 5796 5797 5799 5800 5801 5802
5777 5775 5774 5772 5771 5769 5768 5766 5765 5765 5764 5763 5762 5762 5762 5762 5762 5763 5764 5766 5767 5769 5770 5770 5771 5773 5774 5775 5776 5778 5780 5781 5783 5784 5786 5787 5788 5789 5790 5791 5793 5794 5795
5768 5767 5766 5764 5762 5761 5760 5758 5757 5756 5755 5754 5754 5753 5753 5753 5754 5754 5755 5757 5759 5760 5761 5762 5763 5764 5765 5767 5768 5770 5772 5773 5775 5777 5778 5779 5780 5782 5783 5785 5786 5787 5788
5761 5759 5758 5756 5755 5753 5752 5750 5749 5748 5747 5746 5745 5745 5745 5745 5745 5746 5746 5748 5749 5751 5752 5754 5755 5756 5757 5758 5760 5761 5763 5765 5767 5769 5770 5771 5773 5774 5776 5777 5779 5780 5781
5754 5752 5750 5749 5747 5745 5744 5743 5742 5740 5739 5738 5738 5737 5737 5737 5737 5737 5738 5739 5741 5742 5743 5745 5746 5747 5749 5750 5751 5753 5755 5757 5759 5761 5762 5764 5766 5767 5769 5770 5772 5773 5774
5746 5745 5743 5741 5739 5738 5736 5735 5734 5733 5731 5730 5730 5729 5729 5729 5729 5729 5730 5731 5732 5733 5734 5736 5737 5739 5740 5742 5743 5745 5747 5749 5752 5753 5755 5757 5758 5760 5761 5763 5764 5765 5766
5739 5737 5735 5734 5732 5730 5729 5728 5726 5725 5724 5723 5722 5721 5721 5721 5721 5721 5721 5722 5723 5724 5726 5727 5729 5731 5732 5733 5735 5737 5739 5742 5744 5746 5748 5749 5751 5753 5754 5756 5757 5758 5759
5732 5731 5729 5727 5725 5724 5722 5721 5720 5718 5717 5716 5714 5714 5713 5713 5713 5713 5713 5714 5715 5716 5718 5719 5721 5723 5724 5725 5727 5729 5732 5734 5736 5738 5740 5742 5744 5745 5747 5748 5750 5751 5752
5726 5725 5723 5721 5719 5717 5716 5714 5713 5712 5710 5709 5707 5707 5706 5706 5705 5705 5706 5706 5707 5708 5710 5711 5713 5715 5716 5718 5720 5722 5724 5726 5728 5730 5733 5735 5736 5738 5739 5740 5742 5743 5744
5721 5719 5717 5715 5713 5712 5710 5708 5707 5706 5704 5702 5701 5700 5699 5699 5698 5698 5698 5699 5700 5701 5702 5703 5705 5707 5709 5710 5712 5714 5716 5719 5721 5723 5725 5727 5729 5730 5732 5733 5734 5736 5737
5717 5715 5713 5711 5709 5707 5705 5704 5702 5700 5699 5697 5696 5694 5693 5692 5691 5691 5691 5691 5692 5693 5694 5696 5698 5699 5701 5703 5705 5707 5709 5711 5713 5715 5717 5719 5721 5723 5724 5725 5727 5728 5730
5714 5711 5709 5707 5705 5703 5701 5699 5697 5696 5694 5692 5691 5689 5688 5686 5685 5684 5684 5684 5685 5686 5687 5689 5690 5692 5694 5695 5697 5700 5701 5704 5706 5708 5710 5712 5714 5715 5717 5718 5720 5721 5722
5710 5708 5706 5704 5702 5700 5698 5696 5694 5692 5690 5688 5686 5684 5682 5681 5680 5679 5678 5678 5678 5679 5680 5681 5683 5684 5686 5688 5690 5692 5694 5697 5699 5701 5703 5705 5706 5708 5710 5711 5713 5714 5715
5707 5706 5703 5701 5699 5697 5695 5693 5691 5689 5686 5684 5682 5680 5678 5676 5675 5673 5673 5673 5673 5673 5674 5675 5676 5678 5679 5681 5683 5685 5687 5689 5691 5694 5696 5698 5700 5701 5703 5705 5706 5707 5708